Home   Weather   Galveston   Past weeks

Flag for USA Past Weather in Galveston, Texas, USA — Yesterday and Last 2 Weeks

Now
63 °F

Light rain. Fog.


Feels Like: 63 °F
Forecast: 64 / 69 °F
Wind: 20 mph from Northeast

Location: Scholes Field

Current Time: Dec 2, 2016 at 4:28:47 pm

Latest Report: Dec 2, 2016 at 3:52 pm


Visibility: 3 mi

Pressure: 30.02 "Hg

Humidity: 90%

Dew Point: 60 °F

Location of GalvestonLocation

Past Weather in Galveston — Graph

°F

Galveston Temperature Yesterday

Maximum temperature yesterday: 66 °F (at 10:52 pm)
Minimum temperature yesterday: 55 °F (at 5:52 am)
Average temperature yesterday: 62 °F

High & Low Weather Summary for the Past Weeks

 TemperatureHumidityPressure
High83 °F (Nov 18, 1:52 pm)100% (Nov 28, 10:52 pm)30.52 "Hg (Nov 28, 10:52 pm)
Low53 °F (Nov 19, 6:52 am)30% (Nov 30, 4:52 pm)29.54 "Hg (Nov 28, 3:52 pm)
Average69 °F70%30.08 "Hg
* Reported Nov 17 2:52 pm — Dec 2 2:52 pm, Galveston, Weather by CustomWeather, © 2016

Note: Actual official high and low records may vary slightly from our data, if they occured in-between our weather recording intervals... More about our weather records

Advertising

Galveston Weather History for the Previous 24 Hours

Scroll right to see more
 ConditionsComfort  
Time TempWeatherWind HumidityBarometerVisibility
2:52 pm
Fri, Dec 2
65 °FLight rain. Fog.18 mph87%30.04 "Hg3 mi
2:02 pm65 °FLight rain. Fog.15 mph91%30.04 "Hg3 mi
12:52 pm68 °FLight rain. Overcast.18 mph73%30.05 "Hg10 mi
11:52 am69 °FOvercast.17 mph70%30.08 "Hg10 mi
10:52 am69 °FOvercast.17 mph68%30.09 "Hg10 mi
9:52 am69 °FOvercast.17 mph68%30.10 "Hg10 mi
8:52 am68 °FScattered clouds.17 mph68%30.10 "Hg10 mi
7:52 am68 °FPassing clouds.18 mph63%30.09 "Hg10 mi
6:52 am67 °FOvercast.13 mph71%30.09 "Hg10 mi
5:52 am68 °FOvercast.12 mph65%30.08 "Hg10 mi
4:52 am68 °FOvercast.9 mph63%30.07 "Hg10 mi
3:52 am67 °FPassing clouds.12 mph63%30.07 "Hg10 mi
2:52 am65 °FClear.7 mph68%30.07 "Hg10 mi
1:52 am65 °FPassing clouds.8 mph66%30.08 "Hg10 mi
12:52 am66 °FOvercast.8 mph61%30.08 "Hg10 mi
11:52 pm
Thu, Dec 1
66 °FOvercast.12 mph59%30.08 "Hg10 mi
10:52 pm66 °FOvercast.12 mph56%30.08 "Hg10 mi
9:52 pm65 °FOvercast.9 mph56%30.09 "Hg10 mi
8:52 pm65 °FOvercast.13 mph54%30.08 "Hg10 mi
7:52 pm64 °FOvercast.9 mph56%30.08 "Hg10 mi
6:52 pm62 °FPassing clouds.10 mph56%30.07 "Hg10 mi
5:52 pm63 °FOvercast.9 mph54%30.07 "Hg10 mi
4:52 pm63 °FPartly sunny.7 mph52%30.07 "Hg10 mi
Weather by CustomWeather, © 2016

See weather overviewHow to use our weather pages